Content
SEND FEEDBACK

Daily
Averages
Monthly
Summary
South Africa

CAPE TOWN, SOUTH AFRICA


Home > Africa > South Africa
Elevation: 138 feet     Latitude: 33 59S     Longitude: 018 36E

WEATHER
 
SELECT A DAY
Number of Records: 192,458;   Date Range: 7/1/96 - 9/30/14
 
SHARE

PRINT THIS DATA

[ ← Previous Day ]
WEATHER ALMANAC - NOVEMBER 16, 2013
[ Next Day → ]
[ °C ]   °F
Weather ElementAverageHighLow
Temperature59.5 °F61 °F (5:00 pm)57.2 °F (5:00 am)
Dewpoint55.8 °F57.2 °F (1:00 am)53.6 °F (4:00 am)
Humidity86.5 %94 % (1:00 am)80 % (5:00 pm)
Barometer29.95 in30.00 in (11:00 pm)29.92 in (1:00 am)
Wind Speed6.3 mph13.8 mph (1:00 am)
Weather ElementAverage
Visibility5.7 mi
Wind DirectionSSE (164.3 °)

Weather ElementTotal
Precipitation---
Heating Degree Days5.9 (Base 65)
Growing Degree Days9.1 (Base 50)
Averaged from 31 records on November 16, 2013
WEATHER CONDITIONS BREAKOUT
WIND DIRECTION BREAKOUT
WEATHER BY HOUR - NOVEMBER 16, 2013
[ °C ]   °F
Local TimeTemperatureDewpointHumidityBarometerVisibilityWind DirectionWind SpeedGust SpeedPrecipitationEventsConditions
1:00 AM59.0 °F57.2 °F94 %29.92 in2.5 miSW (220°)13.8 mphRainLight Rain
2:00 AM59.0 °F56.0 °F87 %29.93 in5.0 miNNE (30°)5.8 mphRainLight Rain
2:00 AM59.0 °F55.4 °F88 %29.92 in5.0 miNE (50°)4.6 mphRainLight Rain
3:00 AM59.0 °F55.4 °F88 %29.92 in6.2 miEast (100°)9.2 mphRainLight Rain
4:00 AM59.0 °F53.6 °F82 %29.92 in6.2 miEast (90°)6.9 mphMostly Cloudy
5:00 AM58.0 °F54.0 °F81 %29.93 in12.0 miEast (100°)5.8 mphPartly Cloudy
5:00 AM57.2 °F55.4 °F94 %29.92 in6.2 miESE (110°)4.6 mphMostly Cloudy
6:00 AM57.2 °F53.6 °F88 %29.95 in6.2 miESE (120°)5.8 mphMostly Cloudy
7:00 AM59.0 °F55.4 °F88 %29.95 in6.2 miEast (90°)6.9 mphMostly Cloudy
8:00 AM59.0 °F55.0 °F83 %29.96 in12.0 miNE (50°)6.9 mphPartly Cloudy
8:00 AM59.0 °F55.4 °F88 %29.95 in6.2 miNE (50°)5.8 mphMostly Cloudy
9:00 AM59.0 °F55.4 °F88 %29.95 in6.2 miNNE (20°)4.6 mphScattered Clouds
10:00 AM60.8 °F55.4 °F82 %29.95 in5.6 miNNE (20°)4.6 mphRainLight Rain
11:00 AM60.0 °F56.0 °F82 %29.95 in6.0 miNorth6.9 mphRainLight Rain
11:00 AM59.0 °F55.4 °F88 %29.95 in5.6 miNNE (20°)10.4 mphRainLight Rain
12:00 PM59.0 °F55.4 °F88 %29.95 in5.6 miNW (310°)6.9 mphRainLight Rain
1:00 PM60.8 °F55.4 °F82 %29.95 in5.6 miWNW (300°)8.1 mphRainLight Rain
2:00 PM60.0 °F56.0 °F81 %29.96 in5.0 miNW (310°)6.9 mphRainLight Rain
2:00 PM60.8 °F55.4 °F82 %29.95 in5.0 miNW (320°)5.8 mphRainLight Rain
3:00 PM60.8 °F55.4 °F82 %29.95 in5.0 miWNW (300°)6.9 mphRainLight Rain
4:00 PM60.8 °F55.4 °F82 %29.92 in5.0 miNW (310°)8.1 mphRainLight Rain
5:00 PM61.0 °F56.0 °F80 %29.95 in5.0 miWNW (300°)4.6 mphRainLight Rain
5:00 PM60.8 °F57.2 °F88 %29.95 in5.0 miWest (280°)4.6 mphRainLight Rain
6:00 PM60.8 °F55.4 °F82 %29.95 in3.7 miWNW (300°)3.5 mphRainLight Rain
7:00 PM59.0 °F55.4 °F88 %29.95 in2.5 miWest (260°)5.8 mphRainLight Rain
8:00 PM60.0 °F57.0 °F87 %29.97 in2.0 miWest (270°)6.9 mphRainLight Rain
8:00 PM59.0 °F57.2 °F94 %29.98 in2.5 miWest (260°)8.1 mphRainLight Rain
9:00 PM59.0 °F57.2 °F94 %29.98 in5.0 miSouth (180°)9.2 mphRainLight Rain
10:00 PM59.0 °F57.2 °F94 %29.98 in6.2 miSSE (160°)4.6 mphMostly Cloudy
11:00 PM60.0 °F57.0 °F87 %30.00 in10.0 mi°1.2 mphMostly Cloudy
11:00 PM60.8 °F57.2 °F88 %29.98 in6.2 miVariable1.2 mphMostly Cloudy
Hourly data recorded from FACT, located miles away from Cape Town, South Africa







STORIES FROM OUR PARTNERS